Station Historical Data
Daily Summary for January 20, 2018 Units:  Metric    English   Both
« Previous Day
Next Day »
Daily Weekly Monthly Yearly Custom
  High: Low: Average:
Temperature: 4 °C 0.1 °C 2.3 °C
Dew Point: -1.6 °C -4.8 °C -2.7 °C
Humidity: 83% 55% 70%
Wind Speed: 38.6km/h 1.6km/h 16.1km/h
Wind Gust: 62.8km/h - -
Wind- - WSW
Pressure: 1018.2 hPa 1007 hPa -
Precipitation: 0 mm    
Historical Graphs
 
 
Tabular Data for January 20, 2018
Time Temperature Dew Point Pressure Wind Wind Speed Wind Gust Humidity Rainfall Rate (Hourly)
00:04 3.9 °C -4.1 °C 1007.7 hPa SW 17.7 km/h 32.2 km/h 56% 0.25 mm
00:09 3.9 °C -4.1 °C 1007.7 hPa WSW 12.9 km/h 37 km/h 56% 0.25 mm
00:14 3.9 °C -4.1 °C 1007.3 hPa SW 17.7 km/h 37 km/h 56% 0 mm
00:19 3.9 °C -4.3 °C 1007.3 hPa SSW 20.9 km/h 35.4 km/h 55% 0 mm
00:24 3.9 °C -4.3 °C 1007.3 hPa WSW 24.1 km/h 32.2 km/h 55% 0 mm
00:29 4 °C -4.2 °C 1007 hPa SW 11.3 km/h 40.2 km/h 55% 0 mm
00:34 3.9 °C -4.3 °C 1007 hPa SW 14.5 km/h 32.2 km/h 55% 0 mm
00:39 3.9 °C -4.3 °C 1007.3 hPa WSW 17.7 km/h 32.2 km/h 55% 0 mm
00:44 3.8 °C -4.4 °C 1007.3 hPa SW 22.5 km/h 46.7 km/h 55% 0 mm
00:49 3.7 °C -4.6 °C 1007.3 hPa SW 17.7 km/h 46.7 km/h 55% 0 mm
00:54 3.6 °C -4.4 °C 1007.3 hPa SW 16.1 km/h 37 km/h 56% 0 mm
00:59 3.6 °C -4.4 °C 1007.3 hPa SW 14.5 km/h 30.6 km/h 56% 0 mm
01:04 3.6 °C -4.4 °C 1007.3 hPa SW 14.5 km/h 30.6 km/h 56% 0 mm
01:09 3.5 °C -4.4 °C 1007.3 hPa SW 14.5 km/h 30.6 km/h 56% 0 mm
01:14 3.5 °C -4.7 °C 1007.3 hPa SW 14.5 km/h 30.6 km/h 55% 0 mm
01:19 3.4 °C -4.8 °C 1007.3 hPa SW 30.6 km/h 30.6 km/h 55% 0 mm
01:24 3.6 °C -4.7 °C 1007.3 hPa WSW 17.7 km/h 40.2 km/h 55% 0 mm
01:29 3.6 °C -4.7 °C 1007.3 hPa West 12.9 km/h 30.6 km/h 55% 0 mm
01:34 3.6 °C -4.6 °C 1007.3 hPa WSW 19.3 km/h 35.4 km/h 55% 0 mm
01:39 3.6 °C -4.7 °C 1007.3 hPa SW 14.5 km/h 35.4 km/h 55% 0 mm
01:44 3.6 °C -4.7 °C 1007.3 hPa South 19.3 km/h 33.8 km/h 55% 0 mm
01:49 3.6 °C -4.4 °C 1007.3 hPa WSW 17.7 km/h 35.4 km/h 56% 0 mm
01:54 3.6 °C -4.4 °C 1007.3 hPa WSW 12.9 km/h 32.2 km/h 56% 0 mm
01:59 3.5 °C -4.4 °C 1007.3 hPa SW 17.7 km/h 33.8 km/h 56% 0 mm
02:04 3.4 °C -4.5 °C 1007.3 hPa SW 16.1 km/h 33.8 km/h 56% 0 mm
02:09 3.4 °C -4.5 °C 1007.3 hPa SW 17.7 km/h 32.2 km/h 56% 0 mm
02:14 3.4 °C -4.3 °C 1007.3 hPa SW 19.3 km/h 30.6 km/h 57% 0 mm
02:19 3.3 °C -4.4 °C 1007.7 hPa SW 19.3 km/h 46.7 km/h 57% 0 mm
02:24 3.4 °C -4.3 °C 1007.7 hPa West 24.1 km/h 37 km/h 57% 0 mm
02:29 3.4 °C -4.3 °C 1007.7 hPa SSW 25.7 km/h 37 km/h 57% 0 mm
02:34 3.4 °C -4.1 °C 1007.7 hPa SSW 9.7 km/h 38.6 km/h 58% 0 mm
02:39 3.3 °C -4.2 °C 1007.7 hPa SW 19.3 km/h 37 km/h 58% 0 mm
02:44 3.3 °C -4 °C 1007.7 hPa SW 32.2 km/h 32.2 km/h 59% 0 mm
02:49 3.3 °C -4.2 °C 1007.3 hPa SW 35.4 km/h 40.2 km/h 58% 0 mm
02:54 3.3 °C -4 °C 1007.3 hPa WSW 22.5 km/h 35.4 km/h 59% 0 mm
02:59 3.3 °C -4 °C 1007.7 hPa WSW 35.4 km/h 40.2 km/h 59% 0 mm
03:04 3.3 °C -4 °C 1007.7 hPa SW 22.5 km/h 40.2 km/h 59% 0 mm
03:09 3.2 °C -4.1 °C 1007.7 hPa SW 20.9 km/h 38.6 km/h 59% 0 mm
03:14 3.2 °C -4.1 °C 1007.7 hPa SW 20.9 km/h 40.2 km/h 59% 0 mm
03:19 3.2 °C -3.8 °C 1007.7 hPa SW 20.9 km/h 40.2 km/h 60% 0 mm
03:24 3.2 °C -3.8 °C 1007.7 hPa SW 20.9 km/h 37 km/h 60% 0 mm
03:29 3.3 °C -4 °C 1007.7 hPa SW 29 km/h 41.8 km/h 59% 0 mm
03:34 3.3 °C -3.8 °C 1007.7 hPa West 16.1 km/h 45.1 km/h 60% 0 mm
03:39 3.2 °C -3.8 °C 1008 hPa South 20.9 km/h 38.6 km/h 60% 0 mm
03:44 3.2 °C -3.8 °C 1007.7 hPa SW 11.3 km/h 43.5 km/h 60% 0 mm
03:49 3.1 °C -3.9 °C 1007.7 hPa WSW 25.7 km/h 43.5 km/h 60% 0 mm
03:54 3.2 °C -3.8 °C 1007.7 hPa WSW 11.3 km/h 40.2 km/h 60% 0 mm
03:59 3.1 °C -3.7 °C 1007.7 hPa SW 19.3 km/h 38.6 km/h 61% 0 mm
04:04 3 °C -3.8 °C 1008 hPa SW 16.1 km/h 41.8 km/h 61% 0 mm
04:09 3 °C -3.8 °C 1007.7 hPa SSW 22.5 km/h 41.8 km/h 61% 0 mm
04:14 3 °C -3.8 °C 1007.7 hPa SW 20.9 km/h 46.7 km/h 61% 0 mm
04:19 3 °C -3.8 °C 1008.4 hPa WSW 20.9 km/h 46.7 km/h 61% 0 mm
04:24 3 °C -3.8 °C 1008.4 hPa WSW 22.5 km/h 45.1 km/h 61% 0 mm
04:29 3 °C -3.8 °C 1008.4 hPa WSW 22.5 km/h 38.6 km/h 61% 0 mm
04:34 3.1 °C -3.7 °C 1008.4 hPa WSW 24.1 km/h 54.7 km/h 61% 0 mm
04:39 3.1 °C -3.7 °C 1008.4 hPa WSW 24.1 km/h 54.7 km/h 61% 0 mm
04:44 3 °C -3.6 °C 1008.4 hPa WSW 22.5 km/h 46.7 km/h 62% 0 mm
04:49 3 °C -3.6 °C 1008.7 hPa WSW 20.9 km/h 35.4 km/h 62% 0 mm
04:54 2.9 °C -3.6 °C 1008.7 hPa SW 9.7 km/h 40.2 km/h 62% 0 mm
04:59 2.9 °C -3.6 °C 1008.7 hPa SW 12.9 km/h 41.8 km/h 62% 0 mm
05:04 2.9 °C -3.4 °C 1008.7 hPa SW 24.1 km/h 38.6 km/h 63% 0 mm
05:09 2.9 °C -3.4 °C 1008.7 hPa West 22.5 km/h 48.3 km/h 63% 0 mm
05:14 2.9 °C -3.4 °C 1009 hPa South 33.8 km/h 37 km/h 63% 0 mm
05:19 2.9 °C -3.4 °C 1009 hPa WSW 24.1 km/h 43.5 km/h 63% 0 mm
05:24 2.8 °C -3.3 °C 1009 hPa WSW 22.5 km/h 43.5 km/h 64% 0 mm
05:29 2.8 °C -3.3 °C 1009 hPa WSW 22.5 km/h 40.2 km/h 64% 0 mm
05:34 2.8 °C -3.3 °C 1009.4 hPa WSW 24.1 km/h 43.5 km/h 64% 0 mm
05:39 2.8 °C -3.3 °C 1009 hPa WSW 20.9 km/h 38.6 km/h 64% 0 mm
05:44 2.8 °C -3.3 °C 1009.4 hPa WSW 20.9 km/h 41.8 km/h 64% 0 mm
05:49 2.8 °C -3.3 °C 1009 hPa WSW 38.6 km/h 45.1 km/h 64% 0 mm
05:54 2.8 °C -3.1 °C 1009.4 hPa WSW 22.5 km/h 45.1 km/h 65% 0 mm
05:59 2.9 °C -3 °C 1009.4 hPa WSW 24.1 km/h 46.7 km/h 65% 0 mm
06:04 2.9 °C -3 °C 1009.4 hPa SW 16.1 km/h 46.7 km/h 65% 0 mm
06:09 2.9 °C -3.1 °C 1009.7 hPa SW 19.3 km/h 38.6 km/h 65% 0 mm
06:14 2.9 °C -3.1 °C 1009.7 hPa WSW 27.4 km/h 33.8 km/h 65% 0 mm
06:19 2.9 °C -3.1 °C 1009.7 hPa WSW 16.1 km/h 37 km/h 65% 0 mm
06:24 2.9 °C -3 °C 1009.4 hPa West 25.7 km/h 35.4 km/h 65% 0 mm
06:29 2.9 °C -3 °C 1009.7 hPa WSW 22.5 km/h 41.8 km/h 65% 0 mm
06:34 2.9 °C -3 °C 1009.7 hPa WSW 24.1 km/h 41.8 km/h 65% 0 mm
06:39 2.9 °C -3 °C 1009.7 hPa WSW 22.5 km/h 45.1 km/h 65% 0 mm
06:44 2.9 °C -2.8 °C 1009.7 hPa WSW 22.5 km/h 46.7 km/h 66% 0 mm
06:49 2.8 °C -2.9 °C 1009.7 hPa WSW 22.5 km/h 46.7 km/h 66% 0 mm
06:54 2.9 °C -2.8 °C 1009.7 hPa WSW 19.3 km/h 62.8 km/h 66% 0 mm
06:59 2.9 °C -2.8 °C 1009.7 hPa WSW 24.1 km/h 62.8 km/h 66% 0 mm
07:04 2.9 °C -2.8 °C 1009.7 hPa WSW 24.1 km/h 41.8 km/h 66% 0 mm
07:09 2.8 °C -2.9 °C 1009.7 hPa WSW 24.1 km/h 43.5 km/h 66% 0 mm
07:14 2.8 °C -2.9 °C 1009.7 hPa WSW 22.5 km/h 43.5 km/h 66% 0 mm
07:19 2.7 °C -3 °C 1009.7 hPa SW 25.7 km/h 54.7 km/h 66% 0 mm
07:24 2.8 °C -2.7 °C 1009.7 hPa SW 25.7 km/h 48.3 km/h 67% 0 mm
07:29 2.7 °C -2.8 °C 1009.7 hPa WNW 14.5 km/h 37 km/h 67% 0 mm
07:34 2.7 °C -2.8 °C 1010 hPa WSW 22.5 km/h 40.2 km/h 67% 0 mm
07:39 2.7 °C -2.8 °C 1010.4 hPa WSW 22.5 km/h 40.2 km/h 67% 0 mm
07:44 2.6 °C -2.9 °C 1010.4 hPa WSW 22.5 km/h 40.2 km/h 67% 0 mm
07:49 2.6 °C -2.9 °C 1010.4 hPa SW 17.7 km/h 45.1 km/h 67% 0 mm
07:54 2.6 °C -2.9 °C 1010.7 hPa West 9.7 km/h 32.2 km/h 67% 0 mm
07:59 2.6 °C -2.9 °C 1010.7 hPa WSW 29 km/h 41.8 km/h 67% 0 mm
08:04 2.6 °C -2.8 °C 1011.1 hPa WSW 17.7 km/h 37 km/h 68% 0 mm
08:09 2.6 °C -2.7 °C 1011.1 hPa WSW 22.5 km/h 41.8 km/h 68% 0 mm
08:14 2.6 °C -2.7 °C 1011.1 hPa WSW 20.9 km/h 41.8 km/h 68% 0 mm
08:19 2.7 °C -2.8 °C 1011.1 hPa WSW 20.9 km/h 37 km/h 67% 0 mm
08:24 2.7 °C -2.8 °C 1011.7 hPa WNW 16.1 km/h 33.8 km/h 67% 0 mm
08:29 2.7 °C -2.8 °C 1011.4 hPa WSW 19.3 km/h 40.2 km/h 67% 0 mm
08:34 2.7 °C -2.8 °C 1011.7 hPa WSW 29 km/h 29 km/h 67% 0 mm
08:39 2.8 °C -2.7 °C 1011.7 hPa WSW 16.1 km/h 35.4 km/h 67% 0 mm
08:49 2.7 °C -2.6 °C 1012.1 hPa WSW 17.7 km/h 33.8 km/h 68% 0 mm
08:54 2.8 °C -2.6 °C 1012.1 hPa WSW 17.7 km/h 35.4 km/h 68% 0 mm
08:59 2.8 °C -2.6 °C 1012.1 hPa WSW 19.3 km/h 37 km/h 68% 0 mm
09:04 2.9 °C -2.4 °C 1012.4 hPa WSW 25.7 km/h 35.4 km/h 68% 0 mm
09:09 2.9 °C -2.4 °C 1012.1 hPa WSW 20.9 km/h 35.4 km/h 68% 0 mm
09:14 2.9 °C -2.4 °C 1012.4 hPa WSW 22.5 km/h 29 km/h 68% 0 mm
09:19 3 °C -2.6 °C 1012.4 hPa WSW 17.7 km/h 29 km/h 67% 0 mm
09:24 3.1 °C -2.5 °C 1012.4 hPa WSW 17.7 km/h 38.6 km/h 67% 0 mm
09:29 3.1 °C -2.3 °C 1012.4 hPa WSW 33.8 km/h 35.4 km/h 68% 0.25 mm
09:34 3.2 °C -2.2 °C 1012.4 hPa West 16.1 km/h 33.8 km/h 68% 0.25 mm
09:39 3.1 °C -2.4 °C 1012.4 hPa WSW 25.7 km/h 37 km/h 67% 0.25 mm
09:44 3.1 °C -2.3 °C 1012.8 hPa WSW 11.3 km/h 33.8 km/h 68% 0.25 mm
09:49 3.1 °C -2.3 °C 1012.4 hPa WSW 14.5 km/h 33.8 km/h 68% 0.25 mm
09:54 3.1 °C -2.3 °C 1012.8 hPa WSW 14.5 km/h 29 km/h 68% 0.25 mm
09:59 3.1 °C -2.3 °C 1013.1 hPa WSW 14.5 km/h 30.6 km/h 68% 0.25 mm
10:04 3 °C -2.3 °C 1013.1 hPa WSW 16.1 km/h 30.6 km/h 68% 0.25 mm
10:09 3.1 °C -2.3 °C 1013.1 hPa WSW 19.3 km/h 27.4 km/h 68% 0.25 mm
10:14 3.1 °C -2.2 °C 1013.1 hPa West 24.1 km/h 24.1 km/h 68% 0.25 mm
10:19 3.1 °C -2.3 °C 1013.1 hPa WNW 16.1 km/h 30.6 km/h 68% 0.51 mm
10:24 3.1 °C -2.2 °C 1013.1 hPa WSW 17.7 km/h 37 km/h 68% 0.51 mm
10:29 3 °C -2.1 °C 1013.1 hPa WSW 17.7 km/h 37 km/h 69% 0.25 mm
10:34 2.9 °C -2.2 °C 1013.1 hPa WSW 24.1 km/h 33.8 km/h 69% 0.25 mm
10:39 2.9 °C -2.2 °C 1013.1 hPa SW 16.1 km/h 41.8 km/h 69% 0.25 mm
10:44 3 °C -2.1 °C 1013.1 hPa SSW 25.7 km/h 32.2 km/h 69% 0.51 mm
10:49 2.9 °C -2.2 °C 1013.1 hPa West 17.7 km/h 33.8 km/h 69% 0.51 mm
10:54 2.9 °C -2.2 °C 1013.4 hPa WSW 17.7 km/h 38.6 km/h 69% 0.51 mm
10:59 2.9 °C -2.2 °C 1013.4 hPa WSW 17.7 km/h 38.6 km/h 69% 0.51 mm
11:04 3 °C -2.1 °C 1013.4 hPa WSW 17.7 km/h 35.4 km/h 69% 0.51 mm
11:09 3.1 °C -2.1 °C 1013.4 hPa WSW 17.7 km/h 35.4 km/h 69% 0.51 mm
11:14 3.1 °C -2.1 °C 1013.4 hPa West 9.7 km/h 29 km/h 69% 0.51 mm
11:19 3.2 °C -2.1 °C 1013.4 hPa SW 20.9 km/h 35.4 km/h 68% 0.51 mm
11:24 3.3 °C -2.1 °C 1013.8 hPa WSW 17.7 km/h 35.4 km/h 68% 0.51 mm
11:29 3.4 °C -1.9 °C 1013.8 hPa WSW 17.7 km/h 32.2 km/h 68% 0.51 mm
11:34 3.4 °C -1.9 °C 1013.4 hPa WSW 17.7 km/h 40.2 km/h 68% 0.51 mm
11:39 3.4 °C -1.9 °C 1013.4 hPa WSW 19.3 km/h 40.2 km/h 68% 0.51 mm
11:44 3.4 °C -1.9 °C 1013.4 hPa WSW 20.9 km/h 37 km/h 68% 0.51 mm
11:49 3.4 °C -1.9 °C 1013.4 hPa WSW 20.9 km/h 37 km/h 68% 0.51 mm
11:54 3.4 °C -1.9 °C 1013.4 hPa West 11.3 km/h 38.6 km/h 68% 0.51 mm
11:59 3.4 °C -1.9 °C 1013.4 hPa WSW 17.7 km/h 38.6 km/h 68% 0.76 mm
12:04 3.5 °C -1.8 °C 1013.4 hPa West 16.1 km/h 35.4 km/h 68% 0.76 mm
12:09 3.4 °C -1.9 °C 1013.4 hPa SW 27.4 km/h 37 km/h 68% 0.76 mm
12:14 3.5 °C -1.8 °C 1013.4 hPa WSW 25.7 km/h 38.6 km/h 68% 1.02 mm
12:19 3.6 °C -1.8 °C 1013.4 hPa SSW 16.1 km/h 37 km/h 68% 0.76 mm
12:24 3.5 °C -2.1 °C 1013.4 hPa WSW 20.9 km/h 40.2 km/h 67% 0.76 mm
12:29 3.6 °C -1.8 °C 1013.4 hPa WSW 14.5 km/h 35.4 km/h 68% 0.76 mm
12:34 3.6 °C -1.8 °C 1013.4 hPa SW 20.9 km/h 35.4 km/h 68% 1.02 mm
12:39 3.6 °C -1.7 °C 1013.8 hPa SW 19.3 km/h 35.4 km/h 68% 1.02 mm
12:44 3.6 °C -1.9 °C 1013.4 hPa WSW 19.3 km/h 38.6 km/h 67% 0.76 mm
12:49 3.6 °C -1.7 °C 1013.4 hPa WSW 20.9 km/h 38.6 km/h 68% 0.76 mm
12:54 3.6 °C -1.8 °C 1013.4 hPa WSW 22.5 km/h 41.8 km/h 68% 0.76 mm
12:59 3.6 °C -1.8 °C 1013.4 hPa SW 25.7 km/h 32.2 km/h 68% 0.76 mm
13:04 3.5 °C -1.8 °C 1013.4 hPa WSW 11.3 km/h 45.1 km/h 68% 0.76 mm
13:09 3.5 °C -1.8 °C 1013.4 hPa West 24.1 km/h 32.2 km/h 68% 0.76 mm
13:14 3.6 °C -1.6 °C 1013.4 hPa SW 19.3 km/h 35.4 km/h 69% 0.51 mm
13:19 3.6 °C -1.8 °C 1013.4 hPa NW 11.3 km/h 35.4 km/h 68% 0.51 mm
13:24 3.5 °C -1.7 °C 1013.4 hPa SW 27.4 km/h 33.8 km/h 69% 0.51 mm
13:29 3.4 °C -1.7 °C 1013.4 hPa SE 24.1 km/h 43.5 km/h 69% 0.51 mm
13:34 3.6 °C -1.8 °C 1013.4 hPa WSW 14.5 km/h 33.8 km/h 68% 0.25 mm
13:39 3.6 °C -1.7 °C 1013.4 hPa WSW 16.1 km/h 33.8 km/h 68% 0.25 mm
13:44 3.5 °C -1.7 °C 1013.1 hPa WSW 16.1 km/h 35.4 km/h 69% 0.25 mm
13:49 3.4 °C -1.8 °C 1013.4 hPa WSW 19.3 km/h 43.5 km/h 69% 0.51 mm
13:54 3.4 °C -1.8 °C 1013.4 hPa WSW 20.9 km/h 43.5 km/h 69% 0.51 mm
13:59 3.3 °C -1.9 °C 1013.4 hPa WSW 19.3 km/h 40.2 km/h 69% 0.25 mm
14:04 3.4 °C -1.8 °C 1013.4 hPa WNW 8 km/h 27.4 km/h 69% 0.25 mm
14:09 3.3 °C -1.8 °C 1013.4 hPa SW 25.7 km/h 29 km/h 69% 0.25 mm
14:14 3.3 °C -1.9 °C 1013.4 hPa WSW 19.3 km/h 38.6 km/h 69% 0.25 mm
14:19 3.2 °C -1.7 °C 1013.4 hPa WNW 25.7 km/h 38.6 km/h 70% 0.25 mm
14:24 3.1 °C -1.8 °C 1013.4 hPa SW 17.7 km/h 37 km/h 70% 0.25 mm
14:29 3.2 °C -1.8 °C 1013.4 hPa SW 22.5 km/h 30.6 km/h 70% 0.25 mm
14:34 3.2 °C -1.8 °C 1013.8 hPa WSW 29 km/h 32.2 km/h 70% 0.25 mm
14:39 3.1 °C -1.7 °C 1013.4 hPa SW 11.3 km/h 33.8 km/h 71% 0.25 mm
14:44 3 °C -1.7 °C 1013.8 hPa WSW 17.7 km/h 33.8 km/h 71% 0.25 mm
14:49 2.9 °C -1.8 °C 1013.4 hPa WSW 17.7 km/h 35.4 km/h 71% 0 mm
14:54 2.8 °C -1.7 °C 1013.8 hPa WSW 17.7 km/h 35.4 km/h 72% 0 mm
14:59 2.8 °C -1.7 °C 1013.8 hPa WSW 17.7 km/h 33.8 km/h 72% 0 mm
15:04 2.7 °C -1.8 °C 1013.8 hPa WSW 17.7 km/h 33.8 km/h 72% 0 mm
15:09 2.7 °C -1.9 °C 1013.8 hPa SSW 20.9 km/h 30.6 km/h 72% 0 mm
15:14 2.7 °C -1.7 °C 1013.8 hPa WSW 17.7 km/h 30.6 km/h 73% 0 mm
15:19 2.6 °C -1.7 °C 1013.8 hPa WSW 17.7 km/h 35.4 km/h 73% 0 mm
15:24 2.7 °C -1.7 °C 1013.8 hPa SW 17.7 km/h 30.6 km/h 73% 0 mm
15:29 2.6 °C -1.7 °C 1013.8 hPa West 27.4 km/h 32.2 km/h 73% 0 mm
15:34 2.6 °C -1.7 °C 1014.1 hPa SW 20.9 km/h 33.8 km/h 73% 0 mm
15:39 2.6 °C -1.8 °C 1014.1 hPa West 17.7 km/h 33.8 km/h 73% 0 mm
15:44 2.5 °C -1.8 °C 1014.1 hPa West 17.7 km/h 35.4 km/h 73% 0 mm
15:49 2.4 °C -1.9 °C 1014.4 hPa WSW 16.1 km/h 35.4 km/h 73% 0 mm
15:54 2.3 °C -1.8 °C 1014.4 hPa WSW 14.5 km/h 30.6 km/h 74% 0 mm
15:59 2.3 °C -1.9 °C 1014.8 hPa WSW 14.5 km/h 32.2 km/h 74% 0 mm
16:04 2.2 °C -1.9 °C 1014.8 hPa WSW 14.5 km/h 32.2 km/h 74% 0 mm
16:09 2.2 °C -1.8 °C 1015.1 hPa WSW 14.5 km/h 20.9 km/h 75% 0 mm
16:14 2.2 °C -1.8 °C 1015.1 hPa SW 11.3 km/h 24.1 km/h 75% 0 mm
16:19 2.1 °C -1.9 °C 1015.1 hPa South 11.3 km/h 19.3 km/h 75% 0 mm
16:24 1.9 °C -1.8 °C 1015.1 hPa SW 11.3 km/h 19.3 km/h 76% 0 mm
16:29 1.8 °C -1.9 °C 1015.1 hPa SW 11.3 km/h 19.3 km/h 76% 0 mm
16:34 1.8 °C -2 °C 1015.1 hPa SW 11.3 km/h 19.3 km/h 76% 0 mm
16:39 1.7 °C -1.9 °C 1015.5 hPa SW 9.7 km/h 22.5 km/h 77% 0 mm
16:44 1.5 °C -2.1 °C 1015.8 hPa SW 8 km/h 24.1 km/h 77% 0 mm
16:49 1.4 °C -2.2 °C 1015.5 hPa WSW 9.7 km/h 19.3 km/h 77% 0 mm
16:54 1.3 °C -2.1 °C 1015.8 hPa SW 11.3 km/h 19.3 km/h 78% 0 mm
16:59 1.3 °C -2.1 °C 1015.8 hPa SSW 8 km/h 27.4 km/h 78% 0 mm
17:04 1.2 °C -2.1 °C 1015.8 hPa SW 9.7 km/h 20.9 km/h 79% 0 mm
17:09 1.1 °C -2.1 °C 1015.8 hPa SW 9.7 km/h 20.9 km/h 79% 0 mm
17:14 1 °C -2.2 °C 1015.8 hPa SW 11.3 km/h 20.9 km/h 79% 0 mm
17:19 0.9 °C -2.1 °C 1016.1 hPa SW 11.3 km/h 19.3 km/h 80% 0 mm
17:24 0.9 °C -2.1 °C 1016.1 hPa SW 11.3 km/h 25.7 km/h 80% 0 mm
17:29 0.9 °C -2.2 °C 1016.1 hPa SW 11.3 km/h 25.7 km/h 80% 0 mm
17:34 0.8 °C -2.2 °C 1016.5 hPa SW 9.7 km/h 19.3 km/h 80% 0 mm
17:39 0.8 °C -2.2 °C 1016.1 hPa SW 9.7 km/h 19.3 km/h 80% 0 mm
17:44 0.8 °C -2.3 °C 1016.1 hPa SW 9.7 km/h 19.3 km/h 80% 0 mm
17:49 0.7 °C -2.2 °C 1016.5 hPa SW 6.4 km/h 20.9 km/h 81% 0 mm
17:54 0.7 °C -2.2 °C 1016.5 hPa SW 8 km/h 14.5 km/h 81% 0 mm
17:59 0.7 °C -2.2 °C 1016.5 hPa SW 8 km/h 14.5 km/h 81% 0 mm
18:04 0.7 °C -2.2 °C 1016.5 hPa SW 8 km/h 16.1 km/h 81% 0 mm
18:09 0.6 °C -2.3 °C 1016.8 hPa SW 8 km/h 16.1 km/h 81% 0 mm
18:14 0.6 °C -2.3 °C 1016.8 hPa WSW 11.3 km/h 16.1 km/h 81% 0 mm
18:19 0.6 °C -2.3 °C 1016.8 hPa SW 8 km/h 19.3 km/h 81% 0 mm
18:24 0.6 °C -2.3 °C 1016.8 hPa WSW 6.4 km/h 12.9 km/h 81% 0 mm
18:29 0.5 °C -2.2 °C 1016.5 hPa SSW 11.3 km/h 14.5 km/h 82% 0 mm
18:34 0.5 °C -2.4 °C 1016.8 hPa SW 8 km/h 16.1 km/h 81% 0 mm
18:39 0.4 °C -2.3 °C 1016.8 hPa SW 8 km/h 16.1 km/h 82% 0 mm
18:44 0.4 °C -2.3 °C 1016.8 hPa SW 8 km/h 14.5 km/h 82% 0 mm
18:49 0.3 °C -2.4 °C 1016.8 hPa SW 6.4 km/h 14.5 km/h 82% 0 mm
18:54 0.3 °C -2.4 °C 1016.8 hPa SW 8 km/h 20.9 km/h 82% 0 mm
18:59 0.3 °C -2.4 °C 1016.8 hPa SW 8 km/h 20.9 km/h 82% 0 mm
19:04 0.3 °C -2.4 °C 1016.8 hPa WSW 4.8 km/h 12.9 km/h 82% 0 mm
19:09 0.3 °C -2.4 °C 1016.8 hPa SW 8 km/h 16.1 km/h 82% 0 mm
19:14 0.4 °C -2.1 °C 1016.8 hPa SW 12.9 km/h 16.1 km/h 83% 0 mm
19:19 0.4 °C -2.3 °C 1016.8 hPa SSW 6.4 km/h 14.5 km/h 82% 0 mm
19:24 0.4 °C -2.3 °C 1016.8 hPa South 9.7 km/h 14.5 km/h 82% 0 mm
19:29 0.4 °C -2.3 °C 1016.8 hPa SW 9.7 km/h 12.9 km/h 82% 0 mm
19:34 0.4 °C -2.3 °C 1016.8 hPa SW 8 km/h 14.5 km/h 82% 0 mm
19:39 0.5 °C -2.2 °C 1016.8 hPa SW 8 km/h 20.9 km/h 82% 0 mm
19:44 0.5 °C -2.2 °C 1016.8 hPa SW 8 km/h 20.9 km/h 82% 0 mm
19:49 0.4 °C -2.3 °C 1016.8 hPa SW 8 km/h 14.5 km/h 82% 0 mm
19:54 0.4 °C -2.3 °C 1016.8 hPa SW 8 km/h 16.1 km/h 82% 0 mm
19:59 0.5 °C -2.2 °C 1017.2 hPa SW 8 km/h 16.1 km/h 82% 0 mm
20:04 0.5 °C -2.2 °C 1017.2 hPa WSW 8 km/h 16.1 km/h 82% 0 mm
20:09 0.6 °C -2.2 °C 1017.2 hPa WSW 4.8 km/h 16.1 km/h 82% 0 mm
20:14 0.6 °C -2.2 °C 1017.2 hPa SW 9.7 km/h 16.1 km/h 82% 0 mm
20:19 0.6 °C -2.2 °C 1017.5 hPa SW 16.1 km/h 16.1 km/h 82% 0 mm
20:24 0.6 °C -2.2 °C 1017.5 hPa WSW 9.7 km/h 16.1 km/h 82% 0 mm
20:29 0.6 °C -2.2 °C 1017.5 hPa West 8 km/h 14.5 km/h 82% 0 mm
20:34 0.5 °C -2.2 °C 1017.5 hPa SW 11.3 km/h 14.5 km/h 82% 0 mm
20:39 0.5 °C -2.2 °C 1017.5 hPa SW 9.7 km/h 12.9 km/h 82% 0 mm
20:44 0.4 °C -2.3 °C 1017.5 hPa SW 6.4 km/h 14.5 km/h 82% 0 mm
20:49 0.4 °C -2.3 °C 1017.5 hPa SW 6.4 km/h 14.5 km/h 82% 0 mm
20:54 0.4 °C -2.3 °C 1017.5 hPa WSW 6.4 km/h 14.5 km/h 82% 0 mm
20:59 0.4 °C -2.3 °C 1017.5 hPa SW 8 km/h 14.5 km/h 82% 0 mm
21:04 0.4 °C -2.3 °C 1017.8 hPa SW 6.4 km/h 14.5 km/h 82% 0 mm
21:09 0.4 °C -2.3 °C 1017.8 hPa SW 6.4 km/h 12.9 km/h 82% 0 mm
21:14 0.4 °C -2.3 °C 1017.8 hPa SW 6.4 km/h 12.9 km/h 82% 0 mm
21:19 0.4 °C -2.3 °C 1017.8 hPa SW 4.8 km/h 11.3 km/h 82% 0 mm
21:24 0.4 °C -2.3 °C 1017.8 hPa SW 1.6 km/h 14.5 km/h 82% 0 mm
21:29 0.3 °C -2.4 °C 1017.8 hPa SW 4.8 km/h 11.3 km/h 82% 0 mm
21:34 0.3 °C -2.4 °C 1017.8 hPa SW 8 km/h 11.3 km/h 82% 0 mm
21:39 0.3 °C -2.4 °C 1018.2 hPa SW 6.4 km/h 11.3 km/h 82% 0 mm
21:44 0.3 °C -2.4 °C 1018.2 hPa WSW 6.4 km/h 11.3 km/h 82% 0 mm
21:49 0.2 °C -2.5 °C 1017.8 hPa SW 8 km/h 11.3 km/h 82% 0 mm
21:54 0.2 °C -2.5 °C 1017.8 hPa WSW 4.8 km/h 12.9 km/h 82% 0 mm
21:59 0.2 °C -2.5 °C 1017.8 hPa SW 6.4 km/h 12.9 km/h 82% 0 mm
22:04 0.2 °C -2.5 °C 1017.8 hPa SW 6.4 km/h 11.3 km/h 82% 0 mm
22:09 0.2 °C -2.3 °C 1017.8 hPa SW 6.4 km/h 11.3 km/h 83% 0 mm
22:14 0.2 °C -2.3 °C 1017.5 hPa SW 6.4 km/h 12.9 km/h 83% 0 mm
22:19 0.2 °C -2.4 °C 1017.5 hPa SW 6.4 km/h 12.9 km/h 83% 0 mm
22:24 0.2 °C -2.3 °C 1017.8 hPa SW 6.4 km/h 12.9 km/h 83% 0 mm
22:29 0.2 °C -2.4 °C 1017.8 hPa SW 9.7 km/h 11.3 km/h 83% 0 mm
22:34 0.2 °C -2.4 °C 1017.8 hPa SW 11.3 km/h 12.9 km/h 83% 0 mm
22:39 0.2 °C -2.3 °C 1017.8 hPa SSW 9.7 km/h 12.9 km/h 83% 0 mm
22:44 0.2 °C -2.3 °C 1017.8 hPa SSW 6.4 km/h 14.5 km/h 83% 0 mm
22:49 0.2 °C -2.3 °C 1017.8 hPa SW 6.4 km/h 14.5 km/h 83% 0 mm
22:54 0.2 °C -2.3 °C 1017.8 hPa SW 6.4 km/h 12.9 km/h 83% 0 mm
22:59 0.2 °C -2.4 °C 1017.8 hPa SW 6.4 km/h 11.3 km/h 83% 0 mm
23:04 0.1 °C -2.4 °C 1017.8 hPa SW 4.8 km/h 11.3 km/h 83% 0 mm
23:09 0.1 °C -2.4 °C 1018.2 hPa SW 6.4 km/h 11.3 km/h 83% 0 mm
23:14 0.1 °C -2.4 °C 1018.2 hPa SW 6.4 km/h 12.9 km/h 83% 0 mm
23:19 0.2 °C -2.4 °C 1018.2 hPa SW 6.4 km/h 14.5 km/h 83% 0 mm
23:24 0.2 °C -2.4 °C 1018.2 hPa SW 6.4 km/h 14.5 km/h 83% 0 mm
23:29 0.2 °C -2.4 °C 1018.2 hPa SW 4.8 km/h 12.9 km/h 83% 0 mm
23:34 0.2 °C -2.3 °C 1018.2 hPa SW 4.8 km/h 14.5 km/h 83% 0 mm
23:39 0.2 °C -2.3 °C 1018.2 hPa SW 4.8 km/h 11.3 km/h 83% 0 mm
23:44 0.3 °C -2.3 °C 1018.2 hPa SW 9.7 km/h 16.1 km/h 83% 0 mm
23:49 0.3 °C -2.2 °C 1018.2 hPa WSW 4.8 km/h 11.3 km/h 83% 0 mm
23:54 0.4 °C -2.2 °C 1018.2 hPa SW 6.4 km/h 14.5 km/h 83% 0 mm
23:59 0.4 °C -2.1 °C 1018.2 hPa SW 11.3 km/h 12.9 km/h 83% 0 mm
Buffalo, New York, USA
Compliments of Weather Underground - 2.5 mb